DW1035 Weather Reports


Display with metric or nautical units.
time (UTC)temp
F
wind
direction
speed
MPH
gust
MPH
rain 1hr
in
rain 24hr
in
rain mn
in
humidity
%
barometer
mb
20260504034505 38 0 0.0 0.0 0.00 0.00 0.00 76 1005.5
20260504034006 38 0 0.0 0.0 0.00 0.00 0.00 76 1005.5
20260504033505 37 0 0.0 0.0 0.00 0.00 0.00 75 1005.5
20260504033005 37 0 0.0 0.0 0.00 0.00 0.00 76 1005.4
20260504031505 37 0 0.0 0.0 0.00 0.00 0.00 78 1005.3
20260504031005 37 0 0.0 0.0 0.00 0.00 0.00 78 1005.3
20260504030505 37 0 0.0 0.0 0.00 0.00 0.00 79 1005.2
20260504030005 38 0 0.0 0.0 0.00 0.00 0.00 79 1005.2
20260504024504 39 0 0.0 0.0 0.00 0.00 0.00 76 1005.2
20260504024005 39 0 0.0 0.0 0.00 0.00 0.00 74 1005.2
20260504023506 39 0 0.0 0.0 0.00 0.00 0.00 74 1005.3
20260504023005 39 0 0.0 0.0 0.00 0.00 0.00 73 1005.3
20260504021505 40 0 0.0 0.0 0.00 0.00 0.00 71 1005.2
20260504021005 40 0 0.0 0.0 0.00 0.00 0.00 70 1005.2
20260504020504 41 0 0.0 0.0 0.00 0.00 0.00 70 1005.3
20260504014504 42 0 0.0 0.0 0.00 0.02 0.00 68 1005.3
20260504013504 43 0 0.0 0.0 0.00 0.02 0.00 67 1005.3
20260504013004 43 0 0.0 0.0 0.00 0.02 0.00 65 1005.3
20260504011504 44 0 0.0 0.0 0.00 0.02 0.00 61 1005.1
20260504011005 45 0 0.0 0.0 0.00 0.02 0.00 61 1005.0
20260504010504 45 0 0.0 0.0 0.00 0.02 0.00 58 1005.0
20260504010004 46 0 0.0 0.0 0.00 0.04 0.00 57 1004.9
20260504004504 47 0 0.0 0.0 0.00 0.04 0.00 53 1004.6
20260504003504 47 0 0.0 0.0 0.00 0.04 0.00 52 1004.4
20260504003004 47 0 0.0 0.0 0.00 0.04 0.00 53 1004.3
20260504001504 47 0 0.0 0.0 0.00 0.04 0.00 52 1004.1
20260504001005 48 0 0.0 0.0 0.00 0.04 0.00 52 1004.0
20260504000504 48 0 0.0 0.0 0.00 0.04 0.00 50 1003.9
20260504000004 48 0 0.0 0.0 0.00 0.04 0.00 50 1003.8
20260503234504 49 0 0.0 0.0 0.00 0.04 0.00 48 1003.5
20260503234004 49 0 0.0 0.0 0.00 0.05 0.00 48 1003.4
20260503233504 50 0 0.0 0.0 0.00 0.06 0.00 48 1003.4
20260503233004 50 0 0.0 0.0 0.00 0.06 0.00 48 1003.4
20260503231503 51 0 0.0 0.0 0.00 0.08 0.00 47 1003.2
20260503230004 51 0 0.0 0.0 0.00 0.08 0.00 45 1002.7
20260503224503 51 0 0.0 0.0 0.00 0.08 0.00 46 1002.6
20260503223503 52 0 0.0 0.0 0.00 0.08 0.00 45 1002.4
20260503221503 52 0 0.0 0.0 0.00 0.08 0.00 47 1002.2
20260503221010 52 0 0.0 0.0 0.00 0.08 0.00 47 1002.2
20260503220510 53 0 0.0 0.0 0.00 0.08 0.00 46 1002.0
20260503220010 53 0 0.0 0.0 0.00 0.08 0.00 46 1002.0
20260503214510 53 0 0.0 0.0 0.00 0.08 0.00 47 1001.9
20260503214010 54 0 0.0 0.0 0.00 0.08 0.00 46 1001.8
20260503213510 55 0 0.0 0.0 0.00 0.08 0.00 44 1001.7
20260503213009 55 0 0.0 0.0 0.00 0.08 0.00 45 1001.7
20260503211510 54 0 0.0 0.0 0.00 0.08 0.00 46 1001.5
20260503211009 53 0 0.0 0.0 0.00 0.08 0.00 47 1001.5
20260503210510 53 0 0.0 0.0 0.00 0.08 0.00 48 1001.4
20260503210009 53 0 0.0 0.0 0.00 0.08 0.00 49 1001.5
20260503204009 53 0 0.0 0.0 0.00 0.08 0.00 49 1001.4
20260503203509 53 0 0.0 0.0 0.00 0.08 0.00 49 1001.3
20260503203009 53 0 0.0 0.0 0.00 0.08 0.00 50 1001.3
20260503201009 54 0 0.0 0.0 0.00 0.08 0.00 47 1001.4
20260503200510 54 0 0.0 0.0 0.00 0.08 0.00 49 1001.3
20260503200010 54 0 0.0 0.0 0.00 0.08 0.00 48 1001.3
20260503194009 52 0 0.0 0.0 0.00 0.08 0.00 53 1001.6
20260503193509 52 0 0.0 0.0 0.00 0.08 0.00 54 1001.6
20260503193009 52 0 0.0 0.0 0.00 0.08 0.00 54 1001.6
20260503191509 52 0 0.0 0.0 0.00 0.08 0.00 57 1001.8
20260503191009 52 0 0.0 0.0 0.00 0.08 0.00 58 1001.8
20260503190509 52 0 0.0 0.0 0.00 0.08 0.00 59 1001.9
20260503190009 52 0 0.0 0.0 0.00 0.08 0.00 56 1001.8
20260503184509 51 0 0.0 0.0 0.00 0.08 0.00 60 1001.8
20260503184009 50 0 0.0 0.0 0.00 0.08 0.00 60 1001.9
20260503183509 50 0 0.0 0.0 0.00 0.08 0.00 61 1001.9
20260503181509 49 0 0.0 0.0 0.00 0.08 0.00 66 1002.0
20260503181008 49 0 0.0 0.0 0.00 0.08 0.00 66 1002.0
20260503180508 49 0 0.0 0.0 0.00 0.08 0.00 66 1002.1
20260503180009 49 0 0.0 0.0 0.00 0.08 0.00 67 1002.0
20260503174508 49 0 0.0 0.0 0.00 0.08 0.00 66 1002.0
20260503174009 49 0 0.0 0.0 0.00 0.08 0.00 65 1002.0
20260503173509 49 0 0.0 0.0 0.00 0.08 0.00 66 1002.0
20260503173008 48 0 0.0 0.0 0.00 0.08 0.00 66 1002.0
20260503171509 48 0 0.0 0.0 0.00 0.08 0.00 68 1002.0
20260503171008 47 0 0.0 0.0 0.00 0.08 0.00 68 1002.0
20260503170508 47 0 0.0 0.0 0.00 0.08 0.00 69 1002.0
20260503151008 47 0 0.0 0.0 0.00 0.08 0.00 75 1002.0
20260503150508 48 0 0.0 0.0 0.00 0.08 0.00 74 1002.1
20260503130508 44 0 0.0 0.0 0.00 0.12 0.00 91 1002.9
20260503110507 42 0 0.0 0.0 0.00 0.22 0.00 99 1003.8
20260503090506 42 0 0.0 0.0 0.00 0.22 0.00 99 1003.8
20260503081506 43 0 0.0 0.0 0.00 0.23 0.00 99 1004.7
20260503081006 43 0 0.0 0.0 0.00 0.23 0.00 99 1004.7
20260503071505 44 0 0.0 0.0 0.00 0.23 0.00 99 1005.2
20260503071006 44 0 0.0 0.0 0.00 0.23 0.00 99 1004.9
20260503070506 44 0 0.0 0.0 0.00 0.23 0.00 99 1005.0
20260503054505 45 0 0.0 0.0 0.00 0.23 0.00 99 1005.8
20260503054005 45 0 0.0 0.0 0.00 0.23 0.00 99 1006.0
20260503053505 45 0 0.0 0.0 0.00 0.23 0.00 99 1005.9
20260503053005 45 0 0.0 0.0 0.00 0.23 0.00 99 1005.9
20260503051506 45 0 0.0 0.0 0.00 0.23 0.00 99 1006.3
20260503051006 45 0 0.0 0.0 0.00 0.23 0.00 99 1006.4
20260503044005 45 0 0.0 0.0 0.00 0.23 0.00 99 1007.1
20260503043506 45 0 0.0 0.0 0.00 0.23 0.00 99 1007.1
20260503043006 45 0 0.0 0.0 0.00 0.23 0.00 99 1007.1
20260503041505 46 0 0.0 0.0 0.00 0.23 0.00 99 1006.9
20260503041005 46 0 0.0 0.0 0.00 0.23 0.00 99 1007.0
20260503040505 46 0 0.0 0.0 0.00 0.23 0.00 99 1007.0
20260503040006 46 0 0.0 0.0 0.00 0.23 0.00 99 1006.9